EW9427 Weather Reports


Display with metric or nautical units.
time (UTC)temp
F
wind
direction
speed
MPH
gust
MPH
rain 1hr
in
rain 24hr
in
rain mn
in
humidity
%
barometer
mb
20260503023057 57 28 0.0 3.0 0.00 0.00 0.00 44 1015.8
20260503021601 58 28 0.0 2.0 0.00 0.00 0.00 43 1015.8
20260503020101 60 28 2.0 4.0 0.00 0.00 0.00 41 1015.8
20260503014554 62 28 2.0 4.0 0.00 0.00 0.00 39 1015.8
20260503013053 64 28 2.0 6.0 0.00 0.00 0.00 38 1015.8
20260503011603 64 63 1.0 6.0 0.00 0.00 0.00 38 1015.9
20260503010058 64 360 1.0 8.0 0.00 0.00 0.00 38 1016.1
20260503004552 64 17 2.0 6.0 0.00 0.00 0.00 38 1016.2
20260503003100 64 5 5.0 8.0 0.00 0.00 0.00 38 1016.3
20260503001553 64 119 2.0 6.0 0.00 0.00 0.00 37 1016.4
20260503000050 65 236 1.0 3.0 0.00 0.00 0.00 39 1016.5
20260502234553 65 236 0.0 2.0 0.00 0.00 0.00 37 1016.6
20260502233048 65 250 3.0 8.0 0.00 0.00 0.00 36 1016.7
20260502231548 65 286 4.0 7.0 0.00 0.00 0.00 37 1016.9
20260502230048 66 295 4.0 9.0 0.00 0.00 0.00 37 1017.0
20260502224547 65 198 7.0 10.0 0.00 0.00 0.00 37 1017.1
20260502223046 64 296 1.0 5.0 0.00 0.00 0.00 39 1017.4
20260502221547 65 202 3.0 9.0 0.00 0.00 0.00 38 1017.6
20260502220106 64 344 2.0 9.0 0.00 0.00 0.00 38 1017.8
20260502214543 63 355 4.0 8.0 0.00 0.00 0.00 39 1018.0
20260502213043 63 342 3.0 7.0 0.00 0.00 0.00 41 1018.3
20260502211544 63 286 2.0 8.0 0.00 0.00 0.00 41 1018.4
20260502210043 64 355 6.0 10.0 0.00 0.00 0.00 40 1018.5
20260502204541 64 61 6.0 11.0 0.00 0.00 0.00 40 1018.5
20260502203052 64 202 5.0 11.0 0.00 0.00 0.00 41 1018.7
20260502201540 63 59 5.0 13.0 0.00 0.00 0.00 43 1018.8
20260502200024 62 44 5.0 11.0 0.00 0.00 0.00 43 1019.1
20260502194533 61 11 6.0 12.0 0.00 0.00 0.00 44 1019.2
20260502193019 60 48 9.0 12.0 0.00 0.00 0.00 45 1019.5
20260502191520 60 33 8.0 13.0 0.00 0.00 0.00 45 1019.6
20260502190020 59 28 6.0 11.0 0.00 0.00 0.00 44 1019.7
20260502184521 59 46 9.0 12.0 0.00 0.00 0.00 44 1019.7
20260502183015 60 37 10.0 13.0 0.00 0.00 0.00 45 1019.7
20260502181514 59 17 9.0 13.0 0.00 0.00 0.00 45 1019.8
20260502163014 61 32 11.0 15.0 0.00 0.00 0.00 43 1019.8
20260502161509 60 22 8.0 16.0 0.00 0.00 0.00 44 1019.8
20260502151656 58 30 6.0 15.0 0.00 0.00 0.00 45 1019.8
20260502123012 46 355 4.0 8.0 0.00 0.00 0.00 58 1019.0
20260502121509 46 350 7.0 10.0 0.00 0.00 0.00 58 1018.8
20260502114504 47 355 6.0 11.0 0.00 0.00 0.00 56 1018.5
20260502113002 47 339 8.0 12.0 0.00 0.00 0.00 56 1018.4
20260502111559 46 346 6.0 9.0 0.00 0.00 0.00 57 1018.1
20260502110055 47 312 4.0 9.0 0.00 0.00 0.00 54 1017.9
20260502104553 45 329 3.0 8.0 0.00 0.00 0.00 55 1017.6
20260502103050 46 348 4.0 6.0 0.00 0.00 0.00 53 1017.3
20260502101547 48 328 3.0 9.0 0.00 0.00 0.00 49 1017.0
20260502071526 46 300 4.0 8.0 0.00 0.00 0.00 46 1015.9
20260502070030 47 304 4.0 7.0 0.00 0.00 0.00 45 1015.7
20260502064533 47 323 3.0 9.0 0.00 0.00 0.00 45 1015.7
20260502063018 48 307 5.0 8.0 0.00 0.00 0.00 44 1015.8
20260502061513 50 355 6.0 12.0 0.00 0.00 0.00 42 1015.7
20260502060013 51 345 7.0 11.0 0.00 0.00 0.00 41 1015.6
20260502054509 51 327 7.0 12.0 0.00 0.00 0.00 39 1015.5
20260502053007 54 349 6.0 12.0 0.00 0.00 0.00 36 1015.5
20260502051515 52 329 6.0 12.0 0.00 0.00 0.00 37 1015.5
20260502050006 53 318 9.0 15.0 0.00 0.00 0.00 36 1015.4
20260502044505 51 337 5.0 8.0 0.00 0.00 0.00 36 1015.4
20260502043007 51 350 3.0 5.0 0.00 0.00 0.00 35 1015.5
20260502041505 51 339 2.0 5.0 0.00 0.00 0.00 35 1015.5
20260502040007 51 309 4.0 6.0 0.00 0.00 0.00 34 1015.4
20260502034504 54 288 3.0 7.0 0.00 0.00 0.00 32 1015.4
20260502033003 54 301 3.0 8.0 0.00 0.00 0.00 31 1015.2
20260502031503 55 290 3.0 6.0 0.00 0.00 0.00 31 1015.0
20260502030002 57 298 3.0 7.0 0.00 0.00 0.00 29 1014.9
20260502024600 58 287 5.0 8.0 0.00 0.00 0.00 28 1014.7
20260502024503 58 269 4.0 8.0 0.00 0.00 0.00 28 1014.7